Regional Weather Roundup
Issued by NWS Binghamton, NY

Home | Current Version | Previous Version | Text Only | Print | Product List | Glossary On
Versions: 1 2 3 4 5 6 7 8 9 10 11 12 13 14 15 16 17 18 19 20 21 22 23 24 25 26 27 28 29 30 31 32 33 34 35 36 37 38 39 40 41 42 43 44 45 46 47 48 49 50
000
ASUS41 KBGM 110010
RWRBGM
RWRBGM
BINGHAMTON REGIONAL WEATHER ROUNDUP
NATIONAL WEATHER SERVICE BINGHAMTON NY
800 PM EDT THU JUL 10 2014

Note: "fair" indicates few or no clouds below 12,000 feet with no
significant weather and/or obstructions to visibility.

* = Station(s) that does not report precipitation, such as rain,
snow, etc, also no thunder or fog.

!NYZ009-015>018-022>025-036-037-044>046-055>057-062-110100
...CENTRAL NEW YORK...

CITY           SKY/WX    TMP DP  RH WIND       PRES   REMARKS
BINGHAMTON     CLEAR     69  52  54 N6        30.19R
CORTLAND       FAIR      68  52  56 N3        30.20R
DANSVILLE      CLEAR     70  54  56 NE7       30.17R
ELMIRA         CLEAR     71  55  56 N5        30.16R
ITHACA         CLEAR     69  54  58 N3        30.19R
HAMILTON       CLEAR     68  52  56 N3        30.19R
MONTICELLO     NOT AVBL
NORWICH        CLEAR     66  52  59 CALM      30.19R
PENN YAN       CLEAR     69  49  48 VRB3      30.19R
ROME           CLEAR     68  48  48 NW7       30.18R
SIDNEY         CLEAR     70  59  68 CALM      30.17R
SYRACUSE       PTCLDY    70  45  40 N7        30.17R
$$

!PAZ038>040-043-044-047-048-072-110100
...NORTHEAST PENNSYLVANIA...

CITY           SKY/WX    TMP DP  RH WIND       PRES   REMARKS
HAZLETON       CLOUDY    70  61  73 CALM      30.19R
SCRANTON       MOCLDY    74  60  61 CALM      30.13R
TOWANDA*       CLEAR     73  52  46 N5        30.15R
$$
&&
KEY
WCI = WIND CHILL INDEX
VSB = VISIBILITY
HX  = HEAT INDEX
$$


USA.gov is the U.S. government's official web portal to all federal, state and local government web resources and services.